Regional Weather Roundup
Issued by NWS

Home | Current Version | Previous Version | Graphics & Text | Print | Product List | Glossary On
Versions: 1 2 3 4 5 6 7 8 9 10 11 12 13 14 15 16 17 18 19 20 21 22 23 24 25 26 27 28 29 30 31 32 33 34 35 36 37 38 39 40 41 42 43 44 45 46 47 48 49 50
000
ASUS43 KMPX 241010
RWRMN
WEATHER ROUNDUP FOR MINNESOTA
NATIONAL WEATHER SERVICE TWIN CITIES/CHANHASSEN MN
400 AM CST FRI FEB 24 2017


NOTE: "FAIR" INDICATES FEW OR NO CLOUDS BELOW 12,000 FEET WITH NO
SIGNIFICANT WEATHER AND/OR OBSTRUCTIONS TO VISIBILITY. N/A MEANS
CURRENT SKY AND/OR WEATHER CONDITIONS ARE NOT AVAILABLE.

MNZ060>063-068>070-241100-
   Twin Cities Metro

CITY           SKY/WX    TMP DP  RH WIND       PRES   REMARKS
TWIN CITIES    CLOUDY    27  16  63 NE15      29.87R WCI  15
ST PAUL        CLOUDY    28  19  69 N13       29.88R WCI  17
CRYSTAL        CLOUDY    26  14  60 N16G24    29.87R WCI  14
BLAINE         CLOUDY    27  18  69 N16       29.88R WCI  14
LAKEVILLE      CLOUDY    27  21  80 N12       29.84F WCI  16
EDEN PRAIRIE   CLOUDY    27  16  63 N13G20    29.86R WCI  16
SOUTH ST PAUL  CLOUDY    29  19  64 N10       29.86R WCI  20
LAKE ELMO      CLOUDY    30  21  69 N9        29.87R WCI  22
$$
MNZ001>005-007-008-013>017-022>024-027-028-241100-
   Northwest Minnesota

CITY           SKY/WX    TMP DP  RH WIND       PRES   REMARKS
BEMIDJI        CLEAR     10   6  81 N5        30.02S WCI   2
HALLOCK        CLEAR     10   9  92 CALM      30.15F
ROSEAU         CLEAR      7   1  78 NW5       30.11F WCI  -2
WARROAD        CLEAR      3   0  85 NW6       30.10F WCI  -8
THIEF RVR FALL CLEAR     12   5  73 N9        30.10F WCI   0
CROOKSTON      CLEAR     16   9  73 NE8       30.12F WCI   5
FOSSTON        PTCLDY    10   7  85 N12       30.06S WCI  -4
DETROIT LAKES  CLEAR     16  10  79 N10       30.03S WCI   3
MOORHEAD       CLEAR     18  10  73 N15G23    30.09R WCI   3
PARK RAPIDS    CLOUDY    14   4  64 N12       30.00R WCI   0
MAHNOMEN       FAIR      14   7  72 NE14      30.05R WCI   0
$$
MNZ006-009>011-018-025>026-241100-
   North Central Minnesota

CITY           SKY/WX    TMP DP  RH WIND       PRES   REMARKS
BAUDETTE       CLEAR      6   1  80 N7        30.08S WCI  -6
FLAG ISLAND    CLEAR      7   1  78 NW7       30.10F WCI  -5
INTL FALLS     CLOUDY    11   3  70 N7        30.04F WCI   0
WASKISH        CLEAR      9   7  92 N6        30.05F WCI  -1
BIG FORK       CLOUDY    10   7  85 N5        30.01F WCI   2
LONGVILLE      PTCLDY    12   9  85 CALM      30.00R
GRAND RAPIDS   CLOUDY    14   9  80 N9        30.00F WCI   2
CRANE LAKE     PTCLDY    12   5  73 N6        30.04F WCI   3
ORR            CLOUDY    12   3  67 CALM      29.97F
COOK           CLOUDY    12   7  79 N6        29.98F WCI   3
WALKER         FAIR      11   6  77 N7        30.02R WCI   1
$$
MNZ012-019>021-037-241100-
   Northeast Minnesota

CITY           SKY/WX    TMP DP  RH WIND       PRES   REMARKS
DULUTH         CLOUDY    19  13  77 N13       29.92F WCI   6
ELY            PTCLDY    12   5  73 N3        29.96F
HIBBING        CLOUDY    15   9  76 N8        29.97F WCI   4
EVELETH        PTCLDY    17   8  65 N7        29.97S WCI   8
DULUTH HARBOR  CLOUDY    25  18  74 N20       29.97R WCI  11
TWO HARBORS    CLOUDY    21  14  73 N9        29.93S WCI  11
SILVER BAY     MOCLDY    19  10  68 N5        29.94F WCI  13
GRAND MARAIS     N/A     18   4  54 NE9       30.00F WCI   7
G MARAIS ARPRT PTCLDY    10   0  61 N10       29.91F WCI  -3
$$
MNZ029>031-032-039>041-046>048-054>057-064-241100-
   West Central Minnesota

CITY           SKY/WX    TMP DP  RH WIND       PRES   REMARKS
FERGUS FALLS   PTCLDY    18   9  68 N12       30.08R WCI   5
WHEATON        PTCLDY    19  12  73 N15G24    30.05R WCI   5
MORRIS         CLOUDY    21  16  79 N20       29.98R WCI   6
ALEXANDRIA     CLOUDY    19  11  70 N16G24    29.96R WCI   4
ELBOW LAKE     FAIR      18  11  74 N16       30.00R WCI   3
WADENA         CLOUDY    16   9  73 N13       29.99R WCI   2
GLENWOOD       CLOUDY    19  14  79 N17G26    29.95R WCI   4
APPLETON       CLOUDY    25  16  68 N20       29.97R WCI  11
BENSON           N/A     25  12  58 NE17G24   29.97R WCI  11
ORTONVILLE     CLOUDY    21  14  73 N22G28    29.99R WCI   5
MADISON        CLOUDY    27  19  74 N20       29.96S WCI  13
WILLMAR        FAIR      25  16  68 N18G25    29.92S WCI  11
$$
MNZ033>034-036-042>043-049>051-058-059-241100-
   Central Minnesota

CITY           SKY/WX    TMP DP  RH WIND       PRES   REMARKS
ST CLOUD       CLOUDY    22  13  68 N16G22    29.92R WCI   8
SAUK CENTRE    FAIR      20  11  67 N14       29.94R WCI   7
PAYNESVILLE    CLOUDY    22  13  70 N18G28    29.92R WCI   7
AITKIN         CLOUDY    19  10  68 N13       29.95S WCI   7
PINE RIVER     CLOUDY    16  10  79 N9        30.03R WCI   4
BRAINERD       CLOUDY    18  10  71 N13G22    29.98R WCI   5
STAPLES        MOCLDY    16   9  73 N12       29.98S WCI   3
LONG PRAIRIE   FAIR      19  10  68 NW17G24   29.95S WCI   4
LITTLE FALLS   MOCLDY    21  12  68 N8        29.96R WCI  12
LITCHFIELD     MOCLDY    25  18  74 N14G20    29.90R WCI  13
BUFFALO        CLOUDY    24  15  69 N14       29.91R WCI  12
MAPLE LAKE     CLOUDY    24  18  75 N12G22    29.91R WCI  13
HUTCHINSON     CLOUDY    26  18  72 N18G25    29.88S WCI  12
$$
MNZ037-044-045-052-053-241100-
   East Central Minnesota

CITY           SKY/WX    TMP DP  RH WIND       PRES   REMARKS
PRINCETON      MOCLDY    25  16  68 N14G21    29.92R WCI  13
MORA           MOCLDY    21  14  73 N7        29.94R WCI  13
CAMBRIDGE      CLOUDY    25  16  68 N10G18    29.90R WCI  15
RUSH CITY      CLOUDY    23  16  74 N14       29.92R WCI  11
MOOSE LAKE     CLOUDY    21  14  73 N13       29.93R WCI   9
HINCKLEY       FAIR      23  16  74 N12G17    29.92R WCI  12
CLOQUET        PTCLDY    19  12  73 N9        29.94R WCI   9
MCGREGOR       CLOUDY    19  14  79 N9        29.96R WCI   9
$$
MNZ071>073-080-081-089-090-097-098-241100-
   Southwest Minnesota

CITY           SKY/WX    TMP DP  RH WIND       PRES   REMARKS
MONTEVIDEO     CLOUDY    25  18  74 NE20G28   29.95R WCI  11
GRANITE FALLS  CLOUDY    27  20  75 N18       29.91F WCI  14
CANBY          CLOUDY    25  20  81 N18G25    29.94S WCI  12
MARSHALL       CLOUDY    25  19  78 N23G29    29.87F WCI  10
REDWOOD FALLS  CLOUDY    26  15  63 N14G28    29.87F WCI  14
OLIVIA         CLOUDY    27  19  74 N23       29.87F WCI  12
PIPESTONE      CLOUDY    25  18  74 NE22G31   29.82S WCI  10
WINDOM         MOCLDY    25  19  80 N28G33    29.77F WCI   8
WORTHINGTON    LGT SNOW  24  21  88 N25G32    29.75S FOG     WCI   8
JACKSON        LGT SNOW  25  21  86 N28G35    29.73F WCI   8
TRACY          CLOUDY    27  21  79 N26       29.85F WCI  11
SLAYTON        CLOUDY    23  19  85 N22G32    29.80F FOG     WCI   8
$$
MNZ065>067-074>077-082>085-091>093-241100-
   South Central Minnesota

CITY           SKY/WX    TMP DP  RH WIND       PRES   REMARKS
NEW ULM        CLOUDY    27  18  69 NE21G28   29.80F WCI  13
ST JAMES       CLOUDY    27  21  80 N20G26    29.78F WCI  13
FAIRMONT       LGT SNOW  25  24  96 N18G30    29.73F VSB 1   WCI  11
GLENCOE        CLOUDY    27  20  76 N9G17     29.87S WCI  18
FARIBAULT      LGT SNOW  27  25  93 N15       29.80F VSB 1   WCI  15
OWATONNA       CLOUDY    27  25  93 N18       29.76F WCI  13
WASECA         CLOUDY    28  27  93 N22       29.77F WCI  15
ALBERT LEA     HVY SNOW  27  27 100 N25G33    29.66F VSB 1/4 WCI  11
$$
MNZ078>079-086>088-094>096-241100-
   Southeast Minnesota

CITY           SKY/WX    TMP DP  RH WIND       PRES   REMARKS
ROCHESTER      FOG       27  26  96 N24G33    29.72F VSB 1/4 WCI  12
RED WING       SNOW      28  27  93 N6        29.84R VSB 1/2 WCI  22
STANTON        LGT SNOW  28  26  91 N15       29.81F VSB 3/4 WCI  17
DODGE CENTER   CLOUDY    27  27 100 N21       29.73F WCI  13
WINONA         LGT SNOW  32  30  93 NW6       29.80R VSB 1   WCI  26
AUSTIN           N/A     27  27 100 N16G24    29.70F WCI  14
PRESTON          N/A     28  27  95 N17G24    29.69F WCI  16
$$
ABBREVIATIONS USED IN REMARKS
   TC - TEMPERATURES IN CELSIUS
  WCI - WIND CHILL INDEX
   HX - HEAT INDEX
  VSB - VISIBILITY
$$




USA.gov is the U.S. government's official web portal to all federal, state and local government web resources and services.